When you browse on this site, cookies collect data to enhance your experience and personalize the content and advertising you see.
Visit our Privacy Policy to learn more. By continuing to use the site, you agree to this use of cookies and data.
  • En España
  • Lista de países
  • Para 7 días
  • Temperatura del agua
  • El tiempo en el mapa
  • Informadores
  • user-avatar
    Iniciar sesión

    Tiempo cada hora Akkol'

    Hoy, 30 Mayo, Sábado

    Tiempo Temperatura Precipitaciones Viento Presión Humedad
    00:00 +17°C° 0 mm 3 mps 727 mmHg 84%
    01:00 +16°C° 0 mm 3 mps 727 mmHg 82%
    02:00 +16°C° 0 mm 2 mps 727 mmHg 80%
    03:00 +16°C° 0 mm 2 mps 727 mmHg 79%
    04:00 +15°C° 0 mm 2 mps 728 mmHg 77%
    05:00 +14°C° 0 mm 3 mps 728 mmHg 75%
    06:00 +16°C° 0 mm 3 mps 728 mmHg 66%
    07:00 +18°C° 0 mm 3 mps 728 mmHg 57%
    08:00 +19°C° 0 mm 3 mps 729 mmHg 49%
    09:00 +20°C° 0 mm 3 mps 729 mmHg 44%
    10:00 +21°C° 0 mm 3 mps 729 mmHg 40%
    11:00 +22°C° 0 mm 3 mps 729 mmHg 35%
    12:00 +24°C° 0 mm 3 mps 729 mmHg 32%
    13:00 +25°C° 0 mm 3 mps 729 mmHg 30%
    14:00 +26°C° 0 mm 3 mps 728 mmHg 27%
    15:00 +26°C° 0 mm 3 mps 728 mmHg 27%
    16:00 +26°C° 0 mm 3 mps 728 mmHg 27%
    17:00 +26°C° 0 mm 3 mps 728 mmHg 26%
    18:00 +25°C° 0 mm 2 mps 728 mmHg 31%
    19:00 +23°C° 0 mm 2 mps 728 mmHg 36%
    20:00 +21°C° 0 mm 1 mps 727 mmHg 41%
    21:00 +20°C° 0 mm 1 mps 728 mmHg 43%
    22:00 +19°C° 0 mm 1 mps 728 mmHg 44%
    23:00 +18°C° 0 mm 1 mps 728 mmHg 46%

    Mañana, 31 Mayo, Domingo

    Tiempo Temperatura Precipitaciones Viento Presión Humedad
    00:00 +18°C° 0 mm 1 mps 727 mmHg 47%
    01:00 +17°C° 0 mm 2 mps 727 mmHg 49%
    02:00 +16°C° 0 mm 2 mps 727 mmHg 50%
    03:00 +16°C° 0 mm 2 mps 727 mmHg 51%
    04:00 +16°C° 0 mm 2 mps 726 mmHg 52%
    05:00 +16°C° 0 mm 2 mps 726 mmHg 53%
    06:00 +18°C° 0 mm 2 mps 726 mmHg 50%
    07:00 +20°C° 0 mm 2 mps 726 mmHg 47%
    08:00 +21°C° 0 mm 3 mps 726 mmHg 43%
    09:00 +25°C° 0 mm 3 mps 725 mmHg 41%
    10:00 +27°C° 0 mm 4 mps 725 mmHg 38%
    11:00 +30°C° 0 mm 5 mps 725 mmHg 35%
    12:00 +33°C° 0 mm 6 mps 724 mmHg 29%
    13:00 +35°C° 0 mm 8 mps 724 mmHg 24%
    14:00 +37°C° 0 mm 9 mps 723 mmHg 18%
    15:00 +37°C° 0 mm 8 mps 723 mmHg 19%
    16:00 +36°C° 0 mm 7 mps 722 mmHg 21%
    17:00 +35°C° 0 mm 6 mps 722 mmHg 22%
    18:00 +33°C° 0 mm 6 mps 721 mmHg 27%
    19:00 +30°C° 0 mm 5 mps 721 mmHg 32%
    20:00 +28°C° 0 mm 4 mps 721 mmHg 36%
    21:00 +27°C° 0 mm 4 mps 721 mmHg 38%
    22:00 +26°C° 0 mm 4 mps 721 mmHg 40%
    23:00 +25°C° 0 mm 4 mps 721 mmHg 41%

    Pasado mañana, 1 Junio, Lunes

    Tiempo Temperatura Precipitaciones Viento Presión Humedad
    00:00 +23°C° 0 mm 4 mps 721 mmHg 43%
    01:00 +22°C° 0 mm 4 mps 721 mmHg 45%
    02:00 +22°C° 0 mm 4 mps 721 mmHg 47%
    03:00 +21°C° 0 mm 4 mps 721 mmHg 50%
    04:00 +21°C° 0 mm 4 mps 721 mmHg 54%
    05:00 +21°C° 0 mm 4 mps 721 mmHg 58%
    06:00 +22°C° 0 mm 5 mps 721 mmHg 55%
    07:00 +25°C° 0 mm 5 mps 722 mmHg 52%
    08:00 +27°C° 0 mm 6 mps 722 mmHg 50%
    09:00 +28°C° 0 mm 7 mps 722 mmHg 46%
    10:00 +29°C° 0 mm 7 mps 722 mmHg 42%
    11:00 +32°C° 0 mm 8 mps 722 mmHg 39%
    12:00 +32°C° 0 mm 9 mps 723 mmHg 36%
    13:00 +33°C° 0 mm 9 mps 723 mmHg 33%
    14:00 +34°C° 0 mm 10 mps 723 mmHg 30%
    15:00 +33°C° 0 mm 10 mps 723 mmHg 30%
    16:00 +32°C° 0 mm 9 mps 723 mmHg 30%
    17:00 +31°C° 0 mm 9 mps 723 mmHg 30%
    18:00 +28°C° 0 mm 7 mps 723 mmHg 35%
    19:00 +26°C° 0 mm 5 mps 723 mmHg 40%
    20:00 +24°C° 0 mm 3 mps 723 mmHg 45%
    21:00 +22°C° 0 mm 3 mps 724 mmHg 46%
    22:00 +21°C° 0 mm 3 mps 724 mmHg 48%
    23:00 +20°C° 0 mm 3 mps 724 mmHg 49%

    2 Junio, Martes

    Tiempo Temperatura Precipitaciones Viento Presión Humedad
    00:00 +19°C° 0 mm 2 mps 724 mmHg 53%
    01:00 +18°C° 0 mm 2 mps 724 mmHg 57%
    02:00 +18°C° 0 mm 2 mps 724 mmHg 61%
    03:00 +18°C° 0 mm 1 mps 724 mmHg 64%
    04:00 +18°C° 0 mm 1 mps 724 mmHg 68%
    05:00 +18°C° 0 mm 1 mps 724 mmHg 72%
    06:00 +20°C° 0 mm 1 mps 725 mmHg 65%
    07:00 +22°C° 0 mm 1 mps 725 mmHg 59%
    08:00 +24°C° 0 mm 1 mps 726 mmHg 52%
    09:00 +25°C° 0 mm 2 mps 726 mmHg 45%
    10:00 +26°C° 0 mm 2 mps 726 mmHg 39%
    11:00 +27°C° 0 mm 3 mps 726 mmHg 32%
    12:00 +28°C° 0 mm 3 mps 726 mmHg 29%
    13:00 +29°C° 0 mm 4 mps 726 mmHg 26%
    14:00 +29°C° 0 mm 5 mps 726 mmHg 23%
    15:00 +29°C° 0 mm 5 mps 725 mmHg 23%
    16:00 +29°C° 0 mm 5 mps 725 mmHg 23%
    17:00 +29°C° 0 mm 5 mps 725 mmHg 24%
    18:00 +27°C° 0 mm 4 mps 725 mmHg 30%
    19:00 +25°C° 0 mm 3 mps 725 mmHg 37%
    20:00 +24°C° 0 mm 3 mps 724 mmHg 43%
    21:00 +21°C° 0 mm 2 mps 725 mmHg 46%
    22:00 +20°C° 0 mm 2 mps 725 mmHg 49%
    23:00 +19°C° 0 mm 2 mps 725 mmHg 51%

    3 Junio, Miércoles

    Tiempo Temperatura Precipitaciones Viento Presión Humedad
    00:00 +18°C° 0 mm 2 mps 725 mmHg 53%
    01:00 +19°C° 0 mm 1 mps 725 mmHg 55%
    02:00 +18°C° 0 mm 1 mps 725 mmHg 56%
    03:00 +18°C° 0 mm 1 mps 724 mmHg 58%
    04:00 +18°C° 0 mm 1 mps 724 mmHg 60%
    05:00 +18°C° 0 mm 1 mps 724 mmHg 62%
    06:00 +19°C° 0 mm 2 mps 725 mmHg 57%
    07:00 +21°C° 0 mm 2 mps 725 mmHg 52%
    08:00 +24°C° 0 mm 2 mps 725 mmHg 47%
    09:00 +25°C° 0 mm 3 mps 725 mmHg 43%
    10:00 +25°C° 0 mm 3 mps 725 mmHg 39%
    11:00 +26°C° 0 mm 4 mps 725 mmHg 34%
    12:00 +26°C° 0 mm 4 mps 725 mmHg 36%
    13:00 +27°C° 0 mm 5 mps 725 mmHg 37%
    14:00 +27°C° 0 mm 5 mps 725 mmHg 38%
    15:00 +24°C° 0 mm 6 mps 725 mmHg 43%
    16:00 +23°C° 0 mm 7 mps 725 mmHg 47%
    17:00 +22°C° 0 mm 7 mps 725 mmHg 52%
    18:00 +20°C° 0 mm 7 mps 725 mmHg 54%
    19:00 +17°C° 0 mm 6 mps 725 mmHg 57%
    20:00 +15°C° 0 mm 6 mps 725 mmHg 59%
    21:00 +14°C° 0 mm 6 mps 726 mmHg 60%
    22:00 +13°C° 0 mm 6 mps 726 mmHg 61%
    23:00 +11°C° 0 mm 6 mps 726 mmHg 62%

    4 Junio, Jueves

    Tiempo Temperatura Precipitaciones Viento Presión Humedad
    00:00 +10°C° 0 mm 5 mps 727 mmHg 62%
    01:00 +10°C° 0 mm 5 mps 727 mmHg 61%
    02:00 +10°C° 0 mm 4 mps 727 mmHg 61%
    03:00 +10°C° 0 mm 4 mps 727 mmHg 63%
    04:00 +8°C° 0 mm 4 mps 727 mmHg 64%
    05:00 +9°C° 0 mm 3 mps 728 mmHg 66%
    06:00 +10°C° 0 mm 4 mps 728 mmHg 61%
    07:00 +10°C° 0 mm 5 mps 728 mmHg 55%
    08:00 +13°C° 0 mm 5 mps 728 mmHg 50%
    09:00 +14°C° 0 mm 5 mps 728 mmHg 46%
    10:00 +15°C° 0 mm 5 mps 728 mmHg 41%
    11:00 +16°C° 0 mm 5 mps 728 mmHg 37%
    12:00 +17°C° 0 mm 5 mps 728 mmHg 34%
    13:00 +19°C° 0 mm 5 mps 728 mmHg 32%
    14:00 +19°C° 0 mm 5 mps 728 mmHg 29%
    15:00 +20°C° 0 mm 5 mps 728 mmHg 30%
    16:00 +20°C° 0 mm 4 mps 728 mmHg 30%
    17:00 +20°C° 0 mm 4 mps 728 mmHg 30%
    18:00 +18°C° 0 mm 4 mps 728 mmHg 35%
    19:00 +17°C° 0 mm 4 mps 728 mmHg 39%
    20:00 +14°C° 0 mm 3 mps 728 mmHg 44%
    21:00 +14°C° 0 mm 3 mps 728 mmHg 44%
    22:00 +13°C° 0 mm 3 mps 728 mmHg 45%
    23:00 +13°C° 0 mm 3 mps 728 mmHg 45%
    Mostrar más